Weather Roundup
Issued by NWS Chicago, IL

Home | Current Version | Previous Version | Text Only | Print | Product List | Glossary Off
Versions: 1 2 3 4 5 6 7 8 9 10 11 12 13 14 15 16 17 18 19 20 21 22 23 24 25 26 27 28 29 30 31 32 33 34 35 36 37 38 39 40 41 42 43 44 45 46 47 48 49 50

000
NZUS59 KLOT 282006
HRRLOT

CHICAGO AREA WEATHER ROUNDUP
NATIONAL WEATHER SERVICE CHICAGO/ROMEOVILLE IL
200 PM CST WED JAN 28 2015

NOTE: "FAIR" INDICATES FEW OR NO CLOUDS BELOW 12,000 FEET WITH NO
SIGNIFICANT WEATHER AND/OR OBSTRUCTIONS TO VISIBILITY.

* THESE STATIONS ARE NOT UNDER NWS QUALITY CONTROL. THEY ALSO MAY NOT
  REPORT WEATHER SUCH AS PRECIPITATION OR FOG.

ILZ005-006-012>014-019>023-282100-
NORTHEAST ILLINOIS

CITY           SKY/WX    TMP DP  RH WIND       PRES   REMARKS
OHARE          CLOUDY    33  19  56 SE14      30.11F WCI  23
MIDWAY         CLOUDY    35  19  52 S14G22    30.13F WCI  26
AURORA         PTSUNNY   34  22  61 SE20G25   30.10F WCI  23
LANSING*       MOSUNNY   33  22  63 S14       30.16F WCI  23
JOLIET*        PTSUNNY   33  22  63 S13G20    30.13F WCI  24
WAUKEGAN       PTSUNNY   32  20  61 SE15      30.10F WCI  22
DUPAGE AIRPORT PTSUNNY   33  20  58 S15       30.10F WCI  23
WHEELING       PTSUNNY   34  19  54 S13       30.13F WCI  25
KANKAKEE*      MOSUNNY   34  24  67 SE12      30.15F WCI  25
MORRIS*        PTSUNNY   34  27  75 SE17      30.11F WCI  23
LEWIS AIRPORT* PTSUNNY   33  23  67 S14       30.12F WCI  23
NORTHERLY IS     N/A     34  21  59 SE8         N/A  WCI  27
$$

WIZ051-052-058>065-066-070>072-282100-
SOUTHEAST WISCONSIN

CITY           SKY/WX    TMP DP  RH WIND       PRES   REMARKS
MILWAUKEE      PTSUNNY   34  18  52 SE13      30.11F WCI  25
KENOSHA*       PTSUNNY   35  17  47 S12G18    30.10F WCI  27
RACINE*        PTSUNNY   33  20  58 S15       30.13F WCI  23
BURLINGTON     PTSUNNY   32  17  54 S9        30.08F WCI  24
WAUKESHA       SUNNY     32  19  59 SE9       30.09F WCI  24
WEST BEND      PTSUNNY   34  21  60 SE7       30.07F WCI  28
$$

INZ001>003-010>013-019-020-282100-
NORTHWEST INDIANA

CITY           SKY/WX    TMP DP  RH WIND       PRES   REMARKS
GARY*          PTSUNNY   36  14  41 S9        30.17F
MICHIGAN CITY* NOT AVBL
RENSSELAER*    NOT AVBL
VALPARAISO     MOSUNNY   32  18  56 SE14      30.18F WCI  22
$$

LMZ740>746-282100-
SOUTHERN LAKE MICHIGAN

STATION/POSITION TIME  SKY/WX   TEMP WIND        PRES    VSBY
                                AIR  DIR/SP/G
                 (UTC)          (F)  (DEG/KT/KT) (MB)    (MI)
HARRISON CRIB    2000            32  160/ 17/ 20   N/A
BURNHAM HARBOR   2000            34  170/  9/ 16   N/A
CALUMET HARBOR   2000            33  150/ 13/ 18   N/A
BURNS HARBOR     NOT AVBL
MICHIGAN CITY    2000            31  130/ 14/ 17   N/A
$$

ABBREVIATIONS USED IN REMARKS
   TC - TEMPERATURE IN CELSIUS
  WCI - WIND CHILL INDEX
   HX - HEAT INDEX
  VSB - VISIBILITY
$$



USA.gov is the U.S. government's official web portal to all federal, state and local government web resources and services.